Nashville, TN

8:22 AM CDT on April 24, 2017 (GMT -0500)
Nashville International

Weather History for KBNA - October, 2013

Change the Weather History Date:

Friday, October 4, 2013

  Actual Average Record
Temperature  
Mean Temperature 75 °F 64 °F  
Max Temperature 86 °F 76 °F 91 °F (1884)
Min Temperature 64 °F 53 °F 36 °F (1968)
Degree Days  
Heating Degree Days 0    
Month to date heating degree days 0  
Since 1 July heating degree days 2  
Cooling Degree Days 10    
Month to date cooling degree days 42  
Year to date cooling degree days 1686  
Growing Degree Days 25 (Base 50)    
Moisture  
Dew Point 64 °F    
Average Humidity 72    
Maximum Humidity 93    
Minimum Humidity 51    
Precipitation  
Precipitation 0.00 in 0.11 in 1.82 in (1990)
Month to date precipitation 0.16 0.41  
Year to date precipitation 42.19 36.07  
Snow  
Snow 0.00 in - 0.00 in (2002)
Month to date snowfall 0.0  
Since 1 July snowfall 0.0  
Since 1 September snowfall 0.0  
Snow Depth 0.00 in    
Sea Level Pressure  
Sea Level Pressure 30.07 in    
Wind  
Wind Speed 4 mph (South)    
Max Wind Speed 12 mph    
Max Gust Speed 16 mph    
Visibility 10 miles    
Events      
T = Trace of Precipitation, MM = Missing Value Source: NWS Daily Summary

Daily Weather History Graph

Daily Weather History Graph

Search for Another Location

Airport or City:

Trip Planner

Search our weather history database for the weather conditions in past years. The results will help you decide how hot, cold, wet, or windy it might be!

Date:

Astronomy

Oct. 04, 2013 Rise Set
Actual Time 6:44 AM CDT 6:25 PM CDT
Civil Twilight 6:18 AM CDT 6:51 PM CDT
Nautical Twilight 5:49 AM CDT 7:20 PM CDT
Astronomical Twilight 5:19 AM CDT 7:50 PM CDT
Moon 6:19 AM CDT (10/4) 6:08 PM CDT (10/4)
Length of Visible Light 12h 32m
Length of Day
11h 41m
Waning Crescent, 0% of the Moon is Illuminated
Oct 4
Waning Crescent
Oct 4
New
Oct 11
First Quarter
Oct 18
Full
Oct 26
Last Quarter

Hourly Weather History & Observations

Time (CDT) Temp. Heat Index Dew Point Humidity Pressure Visibility Wind Dir Wind Speed Gust Speed Precip Events Conditions
12:53 AM 66.9 °F - 61.0 °F 81% 30.06 in 10.0 mi South 3.5 mph - N/A   Clear
1:53 AM 66.9 °F - 61.0 °F 81% 30.06 in 10.0 mi SSE 3.5 mph - N/A   Clear
2:53 AM 66.0 °F - 62.1 °F 87% 30.06 in 10.0 mi SSE 3.5 mph - N/A   Clear
3:53 AM 66.0 °F - 62.1 °F 87% 30.06 in 10.0 mi SE 3.5 mph - N/A   Clear
4:53 AM 66.0 °F - 62.1 °F 87% 30.06 in 10.0 mi SE 3.5 mph - N/A   Clear
5:53 AM 64.9 °F - 62.1 °F 90% 30.07 in 10.0 mi Calm Calm - N/A   Clear
6:53 AM 64.0 °F - 62.1 °F 93% 30.09 in 9.0 mi Calm Calm - N/A   Mostly Cloudy
7:53 AM 68.0 °F - 63.0 °F 84% 30.10 in 10.0 mi SE 3.5 mph - N/A   Mostly Cloudy
8:53 AM 70.0 °F - 64.0 °F 81% 30.12 in 10.0 mi Calm Calm - N/A   Mostly Cloudy
9:53 AM 73.0 °F - 64.0 °F 73% 30.12 in 10.0 mi South 5.8 mph - 0.01 in   Mostly Cloudy
10:53 AM 79.0 °F - 64.9 °F 62% 30.11 in 10.0 mi South 8.1 mph - N/A   Mostly Cloudy
11:53 AM 81.0 °F 82.7 °F 64.9 °F 58% 30.10 in 10.0 mi South 6.9 mph - N/A   Mostly Cloudy
12:53 PM 82.9 °F 85.0 °F 66.0 °F 56% 30.08 in 10.0 mi SSW 5.8 mph - N/A   Mostly Cloudy
1:53 PM 84.0 °F 86.3 °F 66.0 °F 55% 30.06 in 10.0 mi WSW 5.8 mph - N/A   Mostly Cloudy
2:53 PM 84.9 °F 87.1 °F 66.0 °F 53% 30.05 in 10.0 mi SSW 10.4 mph - N/A   Mostly Cloudy
3:53 PM 84.9 °F 86.1 °F 64.0 °F 49% 30.04 in 10.0 mi SSW 3.5 mph - N/A   Scattered Clouds
4:53 PM 84.9 °F 86.6 °F 64.9 °F 51% 30.04 in 10.0 mi Variable 3.5 mph - N/A   Mostly Cloudy
5:53 PM 82.0 °F 84.1 °F 66.0 °F 58% 30.04 in 10.0 mi South 9.2 mph - N/A   Mostly Cloudy
6:53 PM 78.1 °F - 66.9 °F 68% 30.04 in 10.0 mi SSE 5.8 mph - N/A   Scattered Clouds
7:53 PM 75.9 °F - 66.9 °F 74% 30.05 in 10.0 mi South 5.8 mph - N/A   Scattered Clouds
8:53 PM 73.9 °F - 66.9 °F 79% 30.07 in 10.0 mi SSE 5.8 mph - N/A   Scattered Clouds
9:53 PM 73.0 °F - 66.9 °F 81% 30.07 in 10.0 mi South 3.5 mph - N/A   Scattered Clouds
10:53 PM 72.0 °F - 66.9 °F 84% 30.07 in 10.0 mi Calm Calm - N/A   Scattered Clouds
11:53 PM 70.0 °F - 66.0 °F 87% 30.06 in 10.0 mi SSE 4.6 mph - N/A   Scattered Clouds